Location: Forst
(46.9333°N, 15.4333°E)
Time: 06:35:20
(UTC+00:00)

Cosmos 2218 Rocket - Pass Details

Date: 01 December 2020
Orbit: 956 x 1006 km, 82.9° (Epoch: 18 January)

Event Time Altitude Azimuth Distance (km) Brightness Sun altitude
Rises 16:28:28 0° 351° (N) 3,649 6.9 -12.7°
Reaches altitude 10° 16:30:58 10° 351° (N) 2,698 6.2 -13.1°
Maximum altitude 16:37:09 90° 85° (E) 965 4.0 -14.1°
Drops below altitude 10° 16:43:19 10° 173° (S) 2,689 6.4 -15.1°
Sets 16:45:48 0° 174° (S) 3,637 7.1 -15.6°
